Starlink 5775

operational
NORAD ID: 56503 Int'l Des: 2023-065 Owner: SPXS Country: US Constellation: starlink
LEOCIRCULAR

关于 Starlink 5775

正在加载描述...

实时位置

正在加载3D地球...

即将过境

高度历史

Altitude vs Time

uPlot chart will show altitude changes over time

两行轨道根数

1 56503U 23065A 25259.47279588 .00000468 00000-0 49737-4 0 9990
2 56503 43.0038 77.3652 0001233 265.5593 94.5109 15.02539945130413
Epoch: Sep 16, 2025 • Age: 36 hours

当前状态

高度 571.6 km
速度 7.58 km/s
星下点 -43.12°S, 15.6°W
发射日期 May 14, 2023
运行时间 2.3 years
类型 internet

技术详情

分类 Payload
质量 305.00 kg
干质量 290.00 kg
总质量 305.00 kg
长度 0.20 m
直径 2.80 m
跨度 9.00 m
形状 Box + pan
制造商 SPXS
平台类型 Starlink
阶段状态 In Orbit
所有者/国家 SPXS/US

大型星座

Loading constellations...